Regional Weather Roundup
Issued by NWS

Home | Current Version | Previous Version | Graphics & Text | Print | Product List | Glossary On
Versions: 1 2 3 4 5 6 7 8 9 10 11 12 13 14 15 16 17 18 19 20 21 22 23 24 25 26 27 28 29 30 31 32 33 34 35 36 37 38 39 40 41 42 43 44 45 46 47 48 49 50
000
ASUS45 KTFX 300310
RWRMT
MONTANA REGIONAL WEATHER ROUNDUP
NATIONAL WEATHER SERVICE GREAT FALLS MT
900 PM MDT SAT AUG 29 2015

NOTE: "FAIR" INDICATES FEW OR NO CLOUDS BELOW 12000 FEET WITH NO
SIGNIFICANT WEATHER AND/OR OBSTRUCTIONS TO VISIBILITY.

MTZ001>007-043-300400-
WEST OF THE DIVIDE

CITY           SKY/WX    TMP DP  RH WIND       PRES   REMARKS
KALISPELL      CLOUDY    70  43  37 W16G22    29.85R SMOKE
MISSOULA       CLOUDY    73  44  35 N12       29.83R HAZE
BUTTE          MOCLDY    65  54  67 S6        29.91R
MULLAN PASS    CLOUDY    48  43  82 SW6       29.99S
DEER LODGE       N/A     72  41  33 NW15      29.88R
EUREKA           N/A     68  37  32 S10G17    29.85F
HAMILTON         N/A     70  46  43 E7        29.81S
LIBBY            N/A     63  46  55 S7        29.85S
$$

MTZ008-052>055-300400-
SOUTHWEST MONTANA

CITY           SKY/WX    TMP DP  RH WIND       PRES   REMARKS
BOZEMAN        CLOUDY    80  41  24 S15       29.82S
DILLON         CLOUDY    78  35  21 S12       29.88R
W YELLOWSTONE  CLOUDY    63  43  48 SW8       30.12R
$$

MTZ009-010-012-014-046-048-049-054-300400-
EAST SLOPES AND CENTRAL MONTANA

CITY           SKY/WX    TMP DP  RH WIND       PRES   REMARKS
CUT BANK       CLOUDY    74  41  30 W24G31    29.75R
GREAT FALLS    MOCLDY    73  51  46 S15       29.73F
MALMSTROM AFB  CLOUDY    71  52  51 S8        29.73S
HELENA         MOCLDY    67  58  72 W9        29.80R
CONRAD           N/A     73  51  45 W2        29.81R
$$

MTZ011-013-016-021-045-047-050-051-300400-
NORTH CENTRAL MONTANA

CITY           SKY/WX    TMP DP  RH WIND       PRES   REMARKS
HAVRE          CLOUDY    73  58  59 MISG      29.67F
LEWISTOWN      CLOUDY    74  49  41 W13       29.83R
N BAR RANCH      N/A     79  41  25 SW12G17   29.87R
CHINOOK          N/A     79  54  41 W16G25    29.75R
FORT BENTON      N/A     72  55  56 CALM      29.71R
$$

MTZ017>020-022>027-061-062-300400-
NORTHEAST MONTANA

CITY           SKY/WX    TMP DP  RH WIND       PRES   REMARKS
GLASGOW        HAZE      80  44  27 E16       29.69F VSB 1
JORDAN           N/A     82  42  24 E3        29.72F
SIDNEY         CLOUDY    79  55  44 CALM      29.75S
WOLF POINT     CLOUDY    76  48  37 NE5       29.72S HAZE
PLENTYWOOD       N/A     79  46  31 E8        29.77S
POPLAR           N/A     81  54  39 NE10      29.73S
$$

MTZ028>42-056>058-300400-
SOUTHCENTRAL AND SOUTHEAST MONTANA

CITY           SKY/WX    TMP DP  RH WIND       PRES   REMARKS
BAKER          MOCLDY    79  51  37 S13       29.85S
BILLINGS       CLOUDY    83  43  24 SE7       29.81F
LIVINGSTON     MOCLDY    79  42  26 S20G28    29.85R
MILES CITY     MOCLDY    86  43  22 S3        29.76R
FORSYTH          N/A     86  41  20 SW7       29.76S
$$

REGIONAL REPORTS...DAKOTAS

CITY           SKY/WX    TMP DP  RH WIND       PRES   REMARKS
WILLISTON      CLOUDY    78  53  41 N6        29.76R HAZE
MINOT          CLOUDY    74  59  59 CALM      29.77S HAZE
DICKINSON      MOCLDY    75  49  39 S8        29.83R
CROSBY           N/A     68  57  68 SE7       29.77F HAZE
BISMARCK       MOCLDY    74  61  63 S7        29.83R
GRAND FORKS      N/A     72  68  87 S13       29.81F
FARGO          MOCLDY    73  65  75 S16G22    29.87S
BUFFALO SD       N/A     77  53  43 SE15      29.81S
RAPID CITY     PTCLDY    71  49  45 CALM      29.93R
$$

REGIONAL REPORTS...WYOMING/IDAHO/WASHINGTON

CITY           SKY/WX    TMP DP  RH WIND       PRES   REMARKS
GILLETTE       MOCLDY    78  36  21 S13       29.92R
SHERIDAN       MOCLDY    70  43  37 S5        29.86S
BUFFALO WY     MOCLDY    79  32  18 W3        29.97R
CODY           CLOUDY    73  43  33 CALM      29.95S
YELLOWSTONE LA   N/A     57  45  64 CALM      30.21R
IDAHO FALLS    LGT RAIN  72  50  45 S16       30.00R
SALMON         CLOUDY    75  37  25 SE3       29.77S
BOISE          CLOUDY    82  45  27 N12       29.78R
SPOKANE        MOCLDY    66  43  43 SW10      29.83R
$$

REGIONAL REPORTS...ALBERTA

CITY           SKY/WX    TMP DP  RH WIND       PRES   REMARKS
EDMONTON       CLEAR     73  50  43 S17G29    29.41F
CALGARY        PTCLDY    64  43  45 S9        29.61S
LETHBRIDGE     MOCLDY    70  45  40 W32G40    29.72R SMOKE
MEDICINE HAT   TSTM      75  48  38 S16G24    29.66R SMOKE
WATERTON GATE    N/A     64  37  36 SW18G32     N/A
CARDSTON         N/A     68  41  37 W10G23      N/A
ONEFOUR          N/A     77  43  29 SE12        N/A
$$

REGIONAL REPORTS...SASKATCHEWAN

CITY           SKY/WX    TMP DP  RH WIND       PRES   REMARKS
SWIFT CURRENT  CLEAR     75  46  35 SE10G17   29.69S HAZE
REGINA         CLOUDY    72  54  53 E7        29.74S SMOKE
SASKATOON      CLOUDY    68  55  64 E8        29.67R
CYPRESS HILLS    N/A     73  41  31 S7          N/A
VAL MARIE        N/A     75  43  31 SE10        N/A
ROCKGLEN         N/A     73  48  40 SE10        N/A
ASSINIBOIA       N/A     72  52  49 SE9         N/A
$$



USA.gov is the U.S. government's official web portal to all federal, state and local government web resources and services.